• En España
  • Lista de países
  • Para 7 días
  • Temperatura del agua
  • Mapa Satelital
  • El tiempo en el mapa
  • Informadores
  • user-avatar
    Iniciar sesión

    Tiempo cada hora Shkoder

    Hoy, 26 Mayo, Sábado

    Tiempo Temperatura Precipitaciones Viento Presión Humedad
    00:00 +18°C° 0 mm 2 mps 740 mmHg 81%
    01:00 +18°C° 0 mm 2 mps 740 mmHg 82%
    02:00 +18°C° 0 mm 3 mps 740 mmHg 82%
    03:00 +17°C° 0 mm 3 mps 740 mmHg 82%
    04:00 +17°C° 0 mm 3 mps 740 mmHg 83%
    05:00 +19°C° 0 mm 3 mps 741 mmHg 80%
    06:00 +21°C° 0 mm 3 mps 741 mmHg 76%
    07:00 +24°C° 0 mm 3 mps 741 mmHg 72%
    08:00 +25°C° 0 mm 3 mps 741 mmHg 67%
    09:00 +26°C° 0 mm 3 mps 741 mmHg 62%
    10:00 +27°C° 0 mm 2 mps 741 mmHg 57%
    11:00 +28°C° 0,1 mm 2 mps 741 mmHg 55%
    12:00 +28°C° 0,1 mm 3 mps 741 mmHg 53%
    13:00 +29°C° 0,1 mm 3 mps 741 mmHg 51%
    14:00 +29°C° 0,1 mm 3 mps 741 mmHg 53%
    15:00 +28°C° 0,1 mm 3 mps 741 mmHg 55%
    16:00 +28°C° 0,1 mm 3 mps 741 mmHg 56%
    17:00 +26°C° 0,1 mm 3 mps 741 mmHg 63%
    18:00 +25°C° 0,1 mm 2 mps 741 mmHg 69%
    19:00 +23°C° 0,1 mm 2 mps 741 mmHg 75%
    20:00 +21°C° 0,3 mm 2 mps 741 mmHg 76%
    21:00 +20°C° 0,3 mm 2 mps 742 mmHg 77%
    22:00 +20°C° 0,3 mm 2 mps 742 mmHg 78%
    23:00 +19°C° 0,1 mm 2 mps 742 mmHg 79%

    Mañana, 27 Mayo, Domingo

    Tiempo Temperatura Precipitaciones Viento Presión Humedad
    00:00 +19°C° 0,1 mm 2 mps 742 mmHg 81%
    01:00 +18°C° 0,1 mm 2 mps 742 mmHg 82%
    02:00 +18°C° 0 mm 2 mps 742 mmHg 82%
    03:00 +18°C° 0 mm 2 mps 742 mmHg 83%
    04:00 +18°C° 0 mm 2 mps 741 mmHg 84%
    05:00 +19°C° 0 mm 2 mps 742 mmHg 80%
    06:00 +21°C° 0 mm 2 mps 742 mmHg 76%
    07:00 +24°C° 0 mm 2 mps 742 mmHg 72%
    08:00 +25°C° 0 mm 2 mps 742 mmHg 66%
    09:00 +27°C° 0 mm 2 mps 742 mmHg 59%
    10:00 +29°C° 0 mm 2 mps 742 mmHg 52%
    11:00 +29°C° 0,1 mm 2 mps 742 mmHg 52%
    12:00 +29°C° 0,1 mm 2 mps 742 mmHg 51%
    13:00 +30°C° 0,1 mm 3 mps 741 mmHg 51%
    14:00 +29°C° 0,3 mm 3 mps 741 mmHg 53%
    15:00 +29°C° 0,3 mm 3 mps 741 mmHg 55%
    16:00 +29°C° 0,3 mm 3 mps 741 mmHg 57%
    17:00 +27°C° 0,3 mm 2 mps 741 mmHg 64%
    18:00 +25°C° 0,3 mm 2 mps 741 mmHg 71%
    19:00 +23°C° 0,3 mm 2 mps 741 mmHg 78%
    20:00 +23°C° 0,1 mm 2 mps 741 mmHg 78%
    21:00 +21°C° 0,1 mm 2 mps 741 mmHg 78%
    22:00 +21°C° 0,1 mm 2 mps 742 mmHg 78%
    23:00 +20°C° 0 mm 2 mps 742 mmHg 79%

    Pasado mañana, 28 Mayo, Lunes

    Tiempo Temperatura Precipitaciones Viento Presión Humedad
    00:00 +20°C° 0 mm 2 mps 741 mmHg 79%
    01:00 +19°C° 0 mm 2 mps 741 mmHg 80%
    02:00 +19°C° 0 mm 2 mps 741 mmHg 80%
    03:00 +19°C° 0 mm 2 mps 741 mmHg 81%
    04:00 +18°C° 0 mm 2 mps 741 mmHg 81%
    05:00 +20°C° 0 mm 2 mps 741 mmHg 78%
    06:00 +23°C° 0 mm 2 mps 742 mmHg 75%
    07:00 +24°C° 0 mm 2 mps 742 mmHg 72%
    08:00 +26°C° 0 mm 2 mps 742 mmHg 66%
    09:00 +27°C° 0 mm 2 mps 742 mmHg 60%
    10:00 +29°C° 0 mm 1 mps 742 mmHg 54%
    11:00 +29°C° 0,2 mm 2 mps 742 mmHg 54%
    12:00 +29°C° 0,2 mm 2 mps 741 mmHg 53%
    13:00 +30°C° 0,2 mm 3 mps 741 mmHg 53%
    14:00 +29°C° 0,4 mm 3 mps 741 mmHg 55%
    15:00 +29°C° 0,4 mm 3 mps 741 mmHg 57%
    16:00 +29°C° 0,4 mm 3 mps 741 mmHg 59%
    17:00 +27°C° 0,2 mm 2 mps 741 mmHg 65%
    18:00 +25°C° 0,2 mm 2 mps 741 mmHg 71%
    19:00 +24°C° 0,2 mm 2 mps 741 mmHg 77%
    20:00 +23°C° 0 mm 2 mps 741 mmHg 78%
    21:00 +21°C° 0 mm 2 mps 741 mmHg 79%
    22:00 +20°C° 0 mm 2 mps 742 mmHg 80%
    23:00 +20°C° 0 mm 2 mps 741 mmHg 80%

    29 Mayo, Martes

    Tiempo Temperatura Precipitaciones Viento Presión Humedad
    00:00 +19°C° 0 mm 2 mps 741 mmHg 81%
    01:00 +19°C° 0 mm 2 mps 741 mmHg 82%
    02:00 +19°C° 0 mm 2 mps 741 mmHg 83%
    03:00 +19°C° 0 mm 2 mps 741 mmHg 84%
    04:00 +18°C° 0 mm 2 mps 741 mmHg 84%
    05:00 +20°C° 0 mm 2 mps 741 mmHg 81%
    06:00 +21°C° 0 mm 2 mps 741 mmHg 77%
    07:00 +24°C° 0 mm 2 mps 741 mmHg 74%
    08:00 +25°C° 0 mm 2 mps 741 mmHg 67%
    09:00 +27°C° 0 mm 2 mps 741 mmHg 61%
    10:00 +28°C° 0 mm 1 mps 741 mmHg 55%
    11:00 +29°C° 0 mm 2 mps 741 mmHg 54%
    12:00 +29°C° 0 mm 2 mps 740 mmHg 52%
    13:00 +30°C° 0 mm 2 mps 740 mmHg 51%
    14:00 +29°C° 0,2 mm 2 mps 740 mmHg 53%
    15:00 +29°C° 0,2 mm 3 mps 740 mmHg 56%
    16:00 +28°C° 0,2 mm 3 mps 739 mmHg 58%
    17:00 +27°C° 0,1 mm 2 mps 739 mmHg 63%
    18:00 +25°C° 0,1 mm 2 mps 739 mmHg 69%
    19:00 +23°C° 0,1 mm 1 mps 739 mmHg 74%
    20:00 +22°C° 0 mm 1 mps 739 mmHg 74%
    21:00 +21°C° 0 mm 2 mps 739 mmHg 73%
    22:00 +20°C° 0 mm 2 mps 739 mmHg 73%
    23:00 +20°C° 0,1 mm 2 mps 739 mmHg 73%

    30 Mayo, Miércoles

    Tiempo Temperatura Precipitaciones Viento Presión Humedad
    00:00 +19°C° 0,1 mm 2 mps 739 mmHg 73%
    01:00 +19°C° 0,1 mm 2 mps 739 mmHg 72%
    02:00 +19°C° 0 mm 2 mps 739 mmHg 73%
    03:00 +18°C° 0 mm 2 mps 739 mmHg 73%
    04:00 +18°C° 0 mm 2 mps 739 mmHg 74%
    05:00 +20°C° 0 mm 2 mps 739 mmHg 71%
    06:00 +23°C° 0 mm 1 mps 739 mmHg 68%
    07:00 +24°C° 0 mm 1 mps 739 mmHg 65%
    08:00 +26°C° 0 mm 1 mps 739 mmHg 60%
    09:00 +27°C° 0 mm 1 mps 739 mmHg 56%
    10:00 +28°C° 0 mm 1 mps 739 mmHg 51%
    11:00 +29°C° 0,2 mm 2 mps 739 mmHg 53%
    12:00 +29°C° 0,2 mm 2 mps 739 mmHg 54%
    13:00 +29°C° 0,2 mm 2 mps 738 mmHg 55%
    14:00 +28°C° 0,3 mm 2 mps 738 mmHg 58%
    15:00 +28°C° 0,3 mm 2 mps 738 mmHg 61%
    16:00 +27°C° 0,3 mm 1 mps 738 mmHg 64%
    17:00 +26°C° 0,1 mm 1 mps 738 mmHg 69%
    18:00 +25°C° 0,1 mm 1 mps 738 mmHg 74%
    19:00 +21°C° 0,1 mm 0 mps 738 mmHg 79%
    20:00 +23°C° 0,1 mm 1 mps 738 mmHg 79%
    21:00 +22°C° 0,1 mm 1 mps 738 mmHg 80%
    22:00 +22°C° 0,1 mm 1 mps 738 mmHg 81%
    23:00 +21°C° 0 mm 1 mps 738 mmHg 81%

    31 Mayo, Jueves

    Tiempo Temperatura Precipitaciones Viento Presión Humedad
    00:00 +21°C° 0 mm 1 mps 738 mmHg 81%
    01:00 +21°C° 0 mm 1 mps 738 mmHg 81%
    02:00 +21°C° 0 mm 1 mps 738 mmHg 82%
    03:00 +20°C° 0 mm 1 mps 738 mmHg 82%
    04:00 +20°C° 0 mm 1 mps 738 mmHg 83%
    05:00 +22°C° 0 mm 1 mps 738 mmHg 78%
    06:00 +23°C° 0 mm 1 mps 738 mmHg 74%
    07:00 +25°C° 0 mm 1 mps 738 mmHg 69%
    08:00 +26°C° 0,5 mm 1 mps 738 mmHg 66%
    09:00 +27°C° 0,5 mm 2 mps 738 mmHg 64%
    10:00 +28°C° 0,5 mm 2 mps 738 mmHg 61%
    11:00 +28°C° 0,6 mm 2 mps 738 mmHg 61%
    12:00 +29°C° 0,6 mm 2 mps 738 mmHg 60%
    13:00 +29°C° 0,6 mm 2 mps 738 mmHg 60%
    14:00 +29°C° 0,6 mm 2 mps 738 mmHg 61%
    15:00 +28°C° 0,6 mm 2 mps 738 mmHg 63%
    16:00 +28°C° 0,6 mm 2 mps 738 mmHg 64%
    17:00 +26°C° 0,4 mm 1 mps 738 mmHg 70%
    18:00 +25°C° 0,4 mm 1 mps 738 mmHg 76%
    19:00 +23°C° 0,4 mm 1 mps 738 mmHg 83%
    20:00 +22°C° 0,3 mm 1 mps 739 mmHg 84%
    21:00 +22°C° 0,3 mm 1 mps 739 mmHg 85%
    22:00 +21°C° 0,3 mm 1 mps 739 mmHg 87%
    23:00 +21°C° 0,1 mm 1 mps 739 mmHg 87%
    Mostrar más